Location: Saint Louis
(38.6272°N, 90.1978°W)
Time: 21:37:20
(UTC-05:00)

ISS - Pass Details

Date: 07 June 2013
Orbit: 401 x 404 km, 51.6° (Epoch: 25 July)

Event Time Altitude Azimuth Distance (km) Brightness Sun altitude
Rises 21:13:42 0° 237° (WSW) 2,362 0.8 -8.9°
Reaches altitude 10° 21:15:49 10° 241° (WSW) 1,497 -0.2 -9.2°
Maximum altitude 21:19:09 62° 323° (NW) 473 -2.7 -9.7°
Drops below altitude 10° 21:22:28 10° 45° (NE) 1,491 -0.5 -10.2°
Sets 21:24:35 0° 49° (NE) 2,351 0.5 -10.5°
